[[{"header":{"parameterUnit":"m.s-1","parameterCategory":1,"la1":30.2991,"la2":30.254,"lo1":-89.0895,"lo2":-89.0444,"dy":0.0017,"dx":0.0017,"nx":28,"ny":28,"refTime":"2024-09-04T09:00:00:Z","depth":0,"parameterNumber":2,"parameterNumberName":"U-component_of_WINDS"},"data":[0,0,0,0,0,0,0,0,0,0,0,0,0,0,0,0,0,0,0,0,0,0,0,0,0,0,0,0,0,0,0,0,0,0,0,0,0,0,0,0,0,0,0,0,0,0,0,0,0,0,0,0,0,0,0,0,0,0,-5.9768,-5.9768,0,-5.9736,-5.9736,-5.9735,-5.9535,-5.953,-5.9526,-5.9521,-5.949,-5.9494,-5.9498,0,0,0,0,0,0,0,0,0,0,0,0,0,-5.9659,-5.9662,-5.9768,-5.9768,-5.9768,-5.9736,-5.9736,-5.9735,-5.9536,-5.953,-5.9524,-5.9519,-5.9489,-5.9494,-5.9498,0,0,0,0,0,0,0,0,0,0,0,0,0,-5.9675,-5.9663,-5.9768,-5.9664,-5.9655,-5.9736,-5.9736,-5.9735,-5.9537,-5.953,-5.9523,-5.9516,-5.9488,-5.9493,-5.9499,-5.9678,0,0,-5.9516,-5.9518,0,0,0,0,0,0,0,0,-5.9674,-5.9679,-5.968,-5.9672,-5.9661,-5.9632,-5.9686,-5.9716,-5.9539,-5.9582,-5.9521,-5.9512,-5.9544,-5.9544,-5.9554,-5.9677,-5.9676,-5.9516,-5.9519,-5.9522,-5.9523,0,0,0,0,0,0,0,-5.9673,-5.9679,-5.9755,-5.968,-5.9669,-5.962,-5.9614,-5.9691,-5.9604,-5.9578,-5.9563,-5.9562,-5.9537,-5.9549,-5.9552,-5.9675,-5.9516,-5.9521,-5.9524,-5.9526,-5.9943,-5.995,0,0,0,0,0,0,-5.9687,-5.968,-5.9757,-5.9755,-5.965,-5.9628,-5.9621,-5.9649,-5.9603,-5.9589,-5.9568,-5.9553,-5.9543,-5.9546,-5.955,-5.9756,-5.9522,-5.9527,-5.953,-5.9935,-5.9944,-5.9953,0,0,0,0,0,0,-5.9685,-5.9695,-5.9758,-5.9713,-5.9717,-5.9637,-5.967,-5.9652,-5.9664,-5.9595,-5.9579,-5.9596,-5.9538,-5.9542,-5.9647,-5.9752,-5.9529,-5.9534,-5.9926,-5.9938,-5.9948,-6.0171,0,0,0,0,0,0,-5.9683,-5.9696,-5.9763,-5.9716,-5.9721,-5.9856,-5.9676,-5.9657,-5.9674,-5.9653,-5.9618,-5.9605,-5.9532,-5.964,-5.9653,-5.9756,-5.9539,-5.9916,-5.9931,-5.9945,-6.0154,-6.0189,-6.0219,0,0,0,0,0,-5.968,-5.9828,-5.9768,-5.9778,-5.9803,-5.9862,-5.9865,-5.9778,-5.9683,-5.975,-5.9706,-5.9606,-5.9739,-5.9653,-5.9665,-5.9772,-5.9909,-5.9927,-5.9944,-6.0139,-6.0182,-6.0218,0,0,0,0,0,0,-5.989,-5.982,-5.9752,-5.989,-5.9884,-5.9829,-5.991,-5.9826,-5.9847,-5.9827,-5.9719,-5.9713,-5.9834,-5.9813,-5.9718,-5.9943,-5.9807,-5.9828,-5.9951,-5.9991,-6.0023,-6.0025,-5.9543,0,0,0,0,0,-5.9953,-6.0006,-5.9942,-6.007,-6.007,-5.9992,-6.0014,-5.9948,-5.9937,-5.9934,-5.9897,-5.9892,-5.9931,-5.996,-5.9994,-6.015,-6.0139,-6.023,-6.0262,-6.0289,-6.0308,-6.0388,-6.0427,-6.001,-6.001,-6.0009,0,0,-6.0082,-6.005,-6.0091,-6.0111,-6.0098,-6.0157,-5.999,-6.0059,-6.0101,-5.9944,-6.004,-6.0014,-6.0001,-6.0132,-6.0188,-6.0119,-6.0421,-6.0311,-6.0333,-6.0337,-6.041,-6.045,-6.0485,-6.0021,-6.0019,-6.0017,0,0,-6.0347,-6.0329,-6.0432,-6.0423,-6.0406,-6.0352,-6.0378,-6.0336,-6.0311,-6.0407,-6.0289,-6.0339,-6.0411,-6.0405,-6.0412,-6.0676,-6.0585,-6.069,-6.0859,-6.0938,-6.0971,-6.1,-6.1093,-6.1128,-6.071,-6.071,-6.0711,0,-6.051,-6.0593,-6.0497,-6.0573,-6.0585,-6.0445,-6.0549,-6.0544,-6.054,-6.0552,-6.0474,-6.056,-6.0542,-6.0669,-6.0734,-6.0745,-6.077,-6.0693,-6.0974,-6.1002,-6.1027,-6.1115,-6.115,-6.0723,-6.0721,-6.072,-6.0719,0,-6.0793,-6.0853,-6.0938,-6.0936,-6.0958,-6.1048,-6.0966,-6.1,-6.0932,-6.0888,-6.0986,-6.0959,-6.0984,-6.1009,-6.0944,-6.1128,-6.1085,-6.0993,-6.0854,-6.1081,-6.1162,-6.1195,-6.0741,-6.0737,-6.0733,-6.073,0,0,-6.1189,-6.1132,-6.1165,-6.1162,-6.1133,-6.1177,-6.1261,-6.1284,-6.1315,-6.1317,-6.1384,-6.1449,-6.1363,-6.1371,-6.1304,-6.1374,-6.1584,-6.1272,-6.127,-6.133,-6.1784,-6.1853,-6.1893,-6.1524,-6.153,-6.1534,-6.1784,0,-6.1442,-6.1581,-6.1497,-6.1648,-6.1701,-6.1569,-6.1642,-6.1633,-6.1594,-6.1633,-6.159,-6.1637,-6.152,-6.1524,-6.1588,-6.1545,-6.1673,-6.1526,-6.1585,-6.1588,-6.1591,-6.1935,-6.2008,-6.2245,-6.1815,-6.1821,-6.1824,0,-6.1755,-6.1769,-6.1926,-6.1885,-6.1905,-6.1972,-6.1986,-6.2026,-6.2013,-6.1979,-6.1989,-6.1904,-6.1984,-6.1849,-6.1957,-6.1859,-6.1878,-6.1861,-6.1868,-6.1869,-6.1719,-6.1944,-6.2318,-6.2354,-6.1873,-6.1869,-6.1866,0,-6.2026,-6.2085,-6.2185,-6.2187,-6.2143,-6.2193,-6.2177,-6.2156,-6.2176,-6.2189,-6.22,-6.2224,-6.2237,-6.2257,-6.2181,-6.209,-6.23,-6.2158,-6.2274,-6.2276,-6.2322,-6.232,-6.2704,-6.2339,-6.2338,-6.2338,-6.2337,0,-6.2316,-6.2417,-6.2306,-6.2368,-6.2477,-6.2381,-6.2491,-6.2462,-6.2445,-6.2499,-6.2387,-6.2441,-6.2338,-6.2382,-6.2324,-6.2422,-6.2429,-6.2404,-6.2387,-6.2413,-6.2416,-6.2423,-6.2404,-6.2347,-6.2345,-6.2343,-6.2342,0,-6.2636,-6.2567,-6.2667,-6.2617,-6.2607,-6.269,-6.2647,-6.2702,-6.2656,-6.2726,-6.2737,-6.2664,-6.2709,-6.2636,-6.2674,-6.2634,-6.277,-6.2729,-6.2775,-6.2762,-6.2881,-6.287,-6.3281,-6.333,-6.2936,-6.294,-6.2943,0,-6.2825,-6.2899,-6.2857,-6.2884,-6.2875,-6.2921,-6.294,-6.2848,-6.2873,-6.2863,-6.292,-6.2956,-6.2979,-6.3058,-6.3009,-6.3037,-6.2994,-6.3137,-6.2998,-6.3021,-6.2995,-6.299,-6.2997,-6.3165,-6.317,-6.3173,-6.3177,0,-6.3167,-6.3128,-6.3159,-6.3179,-6.3204,-6.3215,-6.3218,-6.3248,-6.3151,-6.3184,-6.3228,-6.3247,-6.3284,-6.3321,-6.3337,-6.3321,-6.3234,-6.3221,-6.3249,-6.3275,-6.3298,-6.3286,-6.285,-6.3211,-6.3208,-6.3205,-6.3203,-6.3202,-6.3425,-6.3484,-6.3464,-6.3502,-6.3494,-6.35,-6.3549,-6.3509,-6.3544,-6.3566,-6.351,-6.3568,-6.3553,-6.3565,-6.3559,-6.3603,-6.354,-6.3581,-6.3591,-6.3602,-6.362,-6.3293,-6.3606,-6.3605,-6.3604,-6.3603,-6.3602,0,-6.3759,-6.3739,-6.3776,-6.3783,-6.3813,-6.3727,-6.3727,-6.3758,-6.3809,-6.3802,-6.3828,-6.3879,-6.3914,-6.3869,-6.3896,-6.394,-6.3901,-6.395,-6.3945,-6.3943,-6.3676,-6.3648,-6.3982,-6.3982,-6.3982,-6.3982,-6.3982,-6.3982,-6.3937,-6.4032,-6.3991,-6.4082,-6.4061,-6.4116,-6.4123,-6.4127,-6.4121,-6.4183,-6.4211,-6.4181,-6.4158,-6.4183,-6.4212,-6.4198,-6.4212,-6.4276,-6.4248,-6.3999,-6.3962,-6.3926,-6.3899,-6.4281,-6.4281,-6.4511,-6.4513,-6.4515]},{"header":{"parameterUnit":"m.s-1","parameterCategory":1,"la1":30.2991,"la2":30.254,"lo1":-89.0895,"lo2":-89.0444,"dy":0.0017,"dx":0.0017,"nx":28,"ny":28,"refTime":"2024-09-04T09:00:00:Z","depth":0,"parameterNumber":3,"parameterNumberName":"V-component_of_WINDS"},"data":[0,0,0,0,0,0,0,0,0,0,0,0,0,0,0,0,0,0,0,0,0,0,0,0,0,0,0,0,0,0,0,0,0,0,0,0,0,0,0,0,0,0,0,0,0,0,0,0,0,0,0,0,0,0,0,0,0,0,-1.0133,-1.0134,0,-1.0256,-1.0257,-1.0259,-1.0375,-1.0376,-1.0378,-1.0379,-1.0503,-1.0505,-1.0507,0,0,0,0,0,0,0,0,0,0,0,0,0,-0.9994,-0.9996,-1.0132,-1.0134,-1.0135,-1.0256,-1.0257,-1.0259,-1.0374,-1.0376,-1.0378,-1.038,-1.0502,-1.0505,-1.0507,0,0,0,0,0,0,0,0,0,0,0,0,0,-1.0079,-0.9996,-1.0132,-1.0208,-1.0216,-1.0255,-1.0257,-1.026,-1.0374,-1.0376,-1.0378,-1.038,-1.0501,-1.0504,-1.0507,-1.0482,0,0,-1.0516,-1.0517,0,0,0,0,0,0,0,0,-1.0074,-1.0084,-1.0195,-1.0202,-1.0212,-1.0302,-1.0254,-1.0334,-1.0374,-1.0314,-1.0379,-1.0382,-1.0434,-1.0443,-1.0461,-1.0487,-1.0493,-1.0516,-1.0518,-1.0519,-1.052,0,0,0,0,0,0,0,-1.0068,-1.0079,-1.0181,-1.0196,-1.0207,-1.0234,-1.0249,-1.027,-1.036,-1.0319,-1.0328,-1.0341,-1.0439,-1.0458,-1.0465,-1.0494,-1.0516,-1.0519,-1.0521,-1.0522,-1.0504,-1.0502,0,0,0,0,0,0,-1.0051,-1.0074,-1.0177,-1.0185,-1.0147,-1.0235,-1.0251,-1.0271,-1.036,-1.0376,-1.0339,-1.0346,-1.0452,-1.0461,-1.047,-1.0444,-1.0519,-1.0522,-1.0524,-1.0506,-1.0504,-1.0501,0,0,0,0,0,0,-1.0047,-1.0059,-1.0172,-1.0132,-1.0148,-1.0235,-1.0256,-1.0272,-1.0291,-1.0375,-1.0392,-1.0342,-1.0454,-1.0465,-1.0478,-1.045,-1.0523,-1.0526,-1.0509,-1.0506,-1.0503,-1.0393,0,0,0,0,0,0,-1.0043,-1.0057,-1.0049,-1.0131,-1.015,-1.0178,-1.0255,-1.0273,-1.0296,-1.0306,-1.0382,-1.0397,-1.0457,-1.0472,-1.048,-1.0455,-1.0528,-1.0512,-1.0507,-1.0504,-1.0399,-1.0386,-1.0375,0,0,0,0,0,-1.0038,-1.0013,-1.0048,-1.006,-1.0142,-1.0177,-1.0188,-1.0258,-1.0293,-1.0285,-1.0339,-1.0395,-1.0452,-1.0473,-1.0483,-1.0458,-1.0514,-1.0509,-1.0504,-1.0404,-1.0388,-1.0375,0,0,0,0,0,0,-0.9925,-1.0025,-1.0065,-1.0066,-1.0112,-1.0196,-1.0188,-1.0239,-1.0275,-1.0283,-1.0367,-1.0383,-1.0385,-1.0423,-1.0445,-1.0437,-1.049,-1.0487,-1.0411,-1.0397,-1.0385,-1.0375,-1.0531,0,0,0,0,0,-0.99,-0.9921,-1.0007,-1.0,-1.0021,-1.01,-1.0118,-1.0168,-1.0219,-1.0239,-1.0294,-1.034,-1.0369,-1.0385,-1.0417,-1.0406,-1.0423,-1.0394,-1.0382,-1.0371,-1.0366,-1.0362,-1.0349,-1.0485,-1.0485,-1.0485,0,0,-0.9849,-0.9906,-0.9914,-0.9979,-1.002,-1.0039,-1.0116,-1.0133,-1.0147,-1.0241,-1.0255,-1.0297,-1.0354,-1.0354,-1.0357,-1.0386,-1.0333,-1.0365,-1.0356,-1.0357,-1.0355,-1.0342,-1.0331,-1.0482,-1.0482,-1.0483,0,0,-0.9765,-0.9811,-0.9809,-0.9849,-0.9912,-0.9965,-0.9964,-1.0041,-1.0072,-1.0088,-1.0159,-1.0177,-1.0225,-1.0262,-1.0287,-1.0217,-1.0268,-1.0225,-1.016,-1.0154,-1.0144,-1.0135,-1.0107,-1.0097,-1.022,-1.022,-1.022,0,-0.9693,-0.9725,-0.9802,-0.9814,-0.9839,-0.9927,-0.9924,-0.9959,-1.0028,-1.0043,-1.0075,-1.0136,-1.0181,-1.019,-1.0172,-1.0191,-1.0191,-1.0215,-1.0139,-1.0131,-1.0123,-1.0098,-1.0088,-1.0214,-1.0215,-1.0215,-1.0216,0,-0.9632,-0.9653,-0.9644,-0.9708,-0.9733,-0.9737,-0.9814,-0.983,-0.9878,-0.9926,-0.9941,-0.9998,-1.0041,-1.0048,-1.0095,-1.0063,-1.0079,-1.0124,-1.0179,-1.0103,-1.0081,-1.0072,-1.0206,-1.0208,-1.021,-1.0211,0,0,-0.9479,-0.9586,-0.9581,-0.961,-0.9685,-0.9702,-0.9711,-0.9754,-0.9764,-0.9809,-0.9817,-0.9855,-0.9897,-0.9926,-0.9978,-0.9973,-0.9911,-1.0019,-1.0022,-0.9995,-0.9877,-0.984,-0.9828,-0.9947,-0.9945,-0.9944,-0.9871,0,-0.9405,-0.9426,-0.9495,-0.9494,-0.9513,-0.9596,-0.9603,-0.9649,-0.9695,-0.9718,-0.9769,-0.9794,-0.9849,-0.9866,-0.9866,-0.9918,-0.9888,-0.9925,-0.9952,-0.9952,-0.9933,-0.9817,-0.9779,-0.9707,-0.9863,-0.9862,-0.9861,0,-0.9322,-0.9361,-0.9361,-0.9435,-0.9445,-0.945,-0.9495,-0.9516,-0.9569,-0.9603,-0.9634,-0.9693,-0.9705,-0.9758,-0.9774,-0.9798,-0.9814,-0.9841,-0.984,-0.9843,-0.99,-0.9814,-0.9687,-0.9674,-0.9848,-0.9849,-0.985,0,-0.9206,-0.9259,-0.9266,-0.9289,-0.9376,-0.9377,-0.9413,-0.9469,-0.949,-0.9529,-0.9543,-0.9582,-0.9603,-0.9632,-0.9699,-0.9731,-0.9707,-0.9766,-0.9733,-0.9731,-0.9722,-0.9721,-0.9592,-0.9737,-0.9737,-0.9737,-0.9737,0,-0.9115,-0.9112,-0.9215,-0.9219,-0.9217,-0.9297,-0.9293,-0.9337,-0.9386,-0.9399,-0.9474,-0.9484,-0.9573,-0.9593,-0.9646,-0.965,-0.966,-0.9686,-0.97,-0.9678,-0.9674,-0.9687,-0.9693,-0.9734,-0.9735,-0.9735,-0.9736,0,-0.8985,-0.9055,-0.9067,-0.9148,-0.9168,-0.9163,-0.9232,-0.9238,-0.9289,-0.9305,-0.9313,-0.9392,-0.942,-0.949,-0.9536,-0.9572,-0.9561,-0.9588,-0.9542,-0.955,-0.9513,-0.9514,-0.9386,-0.9372,-0.9526,-0.9525,-0.9524,0,-0.8921,-0.892,-0.9001,-0.9015,-0.9048,-0.907,-0.9092,-0.9171,-0.919,-0.9251,-0.9249,-0.9283,-0.9314,-0.9354,-0.9415,-0.9451,-0.9477,-0.943,-0.9483,-0.946,-0.9473,-0.9471,-0.9471,-0.9417,-0.9415,-0.9413,-0.9412,0,-0.8799,-0.8833,-0.8862,-0.8903,-0.8927,-0.8962,-0.9002,-0.9009,-0.9098,-0.9116,-0.9145,-0.9169,-0.9216,-0.9248,-0.9293,-0.9329,-0.9384,-0.9395,-0.9389,-0.9365,-0.9338,-0.9349,-0.9508,-0.9397,-0.9398,-0.94,-0.94,-0.9401,-0.8698,-0.87,-0.8757,-0.8787,-0.8825,-0.886,-0.887,-0.8922,-0.8948,-0.8993,-0.9038,-0.9062,-0.9115,-0.9181,-0.9213,-0.9232,-0.9261,-0.9253,-0.925,-0.9246,-0.9235,-0.9337,-0.9241,-0.9242,-0.9242,-0.9243,-0.9243,0,-0.8577,-0.8618,-0.8645,-0.8698,-0.872,-0.8773,-0.8819,-0.8834,-0.8854,-0.89,-0.8929,-0.8961,-0.8993,-0.9057,-0.9093,-0.9096,-0.9122,-0.9103,-0.9102,-0.9109,-0.9209,-0.9209,-0.9081,-0.9081,-0.9081,-0.9081,-0.9081,-0.9081,-0.8517,-0.8523,-0.8564,-0.859,-0.8631,-0.8655,-0.8677,-0.871,-0.8746,-0.8779,-0.8806,-0.8848,-0.89,-0.8941,-0.8972,-0.899,-0.8998,-0.897,-0.8996,-0.9087,-0.9102,-0.9117,-0.9117,-0.8972,-0.8972,-0.8894,-0.8893,-0.8893]}]]